Location: ČR
(50.0000°N, 15.0000°E)
Time: 19:40:56
(UTC+00:00)

Vanguard 3 - Pass Details

Date: 30 October 2021
Orbit: 508 x 3260 km, 33.4° (Epoch: 04 December)

Event Time Altitude Azimuth Distance (km) Brightness Sun altitude
Rises 19:19:09 0° 249° (WSW) 3,957 11.3 -35.3°
Reaches altitude 10° 19:23:49 10° 221° (SW) 3,541 10.5 -36.0°
Maximum altitude 19:27:13 12° 199° (SSW) 3,730 10.4 -36.5°
Enters shadow 19:28:53 12° 190° (S) 3,950 10.5 -36.7°
Drops below altitude 10° 19:31:16 10° 178° (S) 4,366 - -37.0°
Sets 19:38:57 0° 155° (SSE) 6,103 - -38.2°
